Вернуться в каталог

NOAA 16 DEB

АктивенPO
NORAD 41307·DEBRIS·🇺🇸 United States

Запущен Sep 21, 2000 с Vandenberg Space Force Base

Loading…

Ближайшие Пролёты (ближайшие 24 часа)

TLE

УстаревшееSource: Space-Track

Эпоха: Sep 3, 2026, 01:45 UTC

1 41307U 00055HK  26246.07301604  .00717059  00000-0  97136-2 0  9993
2 41307  98.8693 105.3697 0004173 226.3718 133.7186 15.55566701557473

Отслеживайте NOAA 16 DEB в реальном времени с AllMySat

Download on the App Store